This demonstration page uses our WeatherBlox Daily Observations layout. Learn more.

Left ArrowRight Arrow

Hourly Observations for January 20, 2022

Temp ( °F °C ) Dew Point ( °F °C ) Humidity (%) Winds ( mph kmh ) Pressure ( in mb ) Visibility ( mi km ) Precip ( " mm )
12:51 am 00:51 Cloudy 41 5 28 -2.2 60 60 SSW 3 6 29.94 1014 10 16 0.00 0.00
1:51 am 01:51 Cloudy 40 4.4 28 -2.2 63 63 SW 5 7 29.94 1014 10 16 0.00 0.00
2:51 am 02:51 Cloudy 40 4.4 29 -1.7 65 65 SW 8 13 29.97 1015 10 16 0.00 0.00
3:23 am 03:23 Cloudy with Light Rain 40 4.4 29 -1.7 65 65 SW 5 7 29.98 1015 10 16 0.00 0.00
3:51 am 03:51 Cloudy with Rain 41 5 32 0 70 70 WSW 8 13 29.98 1015 7 11 0.04 1.02
4:26 am 04:26 Cloudy with Light Rain 39 3.9 34 1.1 82 82 W 6 9 29.99 1016 7 11 0.04 1.02
4:51 am 04:51 Cloudy with Rain 39 3.9 35 1.7 86 86 W 6 9 29.98 1015 8 13 0.05 1.27
5:51 am 05:51 Cloudy with Light Rain 38 3.3 35 1.7 89 89 Calm 29.99 1016 7 11 0.03 0.76
6:51 am 06:51 Cloudy with Light Rain 38 3.3 35 1.7 89 89 W 5 7 30.03 1017 5 8 0.02 0.51
7:07 am 07:07 Cloudy with Light Rain 38 3.3 35 1.7 89 89 NW 7 11 30.04 1017 5 8 0.01 0.25
7:24 am 07:24 Cloudy with Light Rain 37 3 34 1 87 87 NW 9 15 30.06 1018 6 10 0.00 0.00
7:51 am 07:51 Cloudy with Light Rain 37 2.8 33 0.6 86 86 NW 9 15 30.08 1019 4 6 0.05 1.27
8:07 am 08:07 Cloudy with Light Rain 36 2.2 32 0 86 86 NNW 10 17 30.09 1019 5 8 0.01 0.25
8:46 am 08:46 Cloudy with Light Snow 34 1 30 -1 87 87 N 12 19 30.11 1020 3 5 0.04 1.02
8:51 am 08:51 Cloudy with Light Snow 33 0.6 30 -1.1 89 89 N 10 17 30.10 1019 2 3 0.04 1.02
8:59 am 08:59 Cloudy with Light Snow 33 0.6 30 -1.1 89 89 NNW 13 20 30.12 1020 1 2 0.00 0.00
9:15 am 09:15 Cloudy with Light Snow 32 0 30 -1.1 92 92 NNW 8 13 30.13 1020 1 1 0.02 0.51
9:22 am 09:22 Cloudy with Light Snow 32 0 30 -1.1 92 92 NNW 8 13 30.13 1020 1 1 0.03 0.76
9:29 am 09:29 Cloudy with Light Snow 32 0 30 -1.1 92 92 N 8 13 30.13 1020 1 2 0.03 0.76
9:36 am 09:36 Cloudy with Light Snow 32 0 30 -1.1 92 92 NNW 7 11 30.14 1021 1 2 0.03 0.76
9:51 am 09:51 Cloudy with Light Snow 32 0 30 -1.1 92 92 NNW 8 13 30.15 1021 1 2 0.04 1.02
10:01 am 10:01 Cloudy with Light Snow 32 0 30 -1.1 92 92 NNW 8 13 30.15 1021 1 1 0.01 0.25
10:12 am 10:12 Cloudy with Light Snow 32 0 29 -1.7 88 88 NNW 8 13 30.15 1021 1 2 0.01 0.25
10:51 am 10:51 Cloudy with Light Snow 31 -0.6 29 -1.7 92 92 NNW 8 13 30.15 1021 1 2 0.03 0.76
11:22 am 11:22 Cloudy with Light Snow 31 -0.6 28 -2.2 89 89 NNW 10 17 30.14 1021 3 5 0.00 0.00
11:34 am 11:34 Cloudy 31 -0.6 28 -2.2 89 89 NNW 10 17 30.14 1021 7 11 0.00 0.00
11:51 am 11:51 Cloudy 32 0 29 -1.7 88 88 NNW 13 20 30.14 1021 10 16 0.00 0.00
12:51 pm 12:51 Cloudy 33 0.6 24 -4.4 70 70 NNW 10 17 30.14 1021 10 16 0.00 0.00
1:51 pm 13:51 Cloudy 34 1.1 23 -5 64 64 NW 12 19 30.15 1021 10 16 0.00 0.00
2:51 pm 14:51 Sunny 33 0.6 19 -7.2 56 56 NNW 12 19 30.16 1021 10 16 0.00 0.00
3:51 pm 15:51 Sunny 32 0 15 -9.4 50 50 NNW 9 15 30.18 1022 10 16 0.00 0.00
4:51 pm 16:51 Sunny 32 0 12 -11.1 43 43 N 10 17 30.20 1023 10 16 0.00 0.00
5:51 pm 17:51 Clear 30 -1.1 10 -12.2 43 43 NNW 9 15 30.25 1024 10 16 0.00 0.00
6:51 pm 18:51 Clear 29 -1.7 9 -12.8 43 43 N 12 19 30.28 1026 10 16 0.00 0.00
7:51 pm 19:51 Clear 27 -2.8 8 -13.3 45 45 N 13 20 30.31 1027 10 16 0.00 0.00
8:51 pm 20:51 Clear 25 -3.9 8 -13.3 48 48 NNW 10 17 30.33 1027 10 16 0.00 0.00
9:51 pm 21:51 Clear 23 -5 6 -14.4 48 48 NNW 15 24 30.37 1028 10 16 0.00 0.00
10:51 pm 22:51 Clear 22 -5.6 5 -15 48 48 N 13 20 30.39 1029 10 16 0.00 0.00
11:51 pm 23:51 Clear 20 -6.7 5 -15 52 52 NNW 12 19 30.40 1030 10 16 0.00 0.00

Powered by AerisWeather